AEROCUBE 7

Last updated on Sat Aug 15 2026 00:03:44 GMT+0000 (Coordinated Universal Time)

1 40966U 15058C 26226.59583330 .00001853 00000+0 15473-3 0 9997 2 40966 64.7611 61.8033 0124252 39.2291 321.7746 14.96155376374691
UTC large
Height (km)
Speed (km/s)
/
Latitude / Longitude
Inclination (degrees)
Orbital Period (minutes)
Azimuth
Elevation
Range (km)
Doppler Factor

Next 0 passes for location: London (51.5072 / 0.1276)

No passes found over London.
AEROCUBE 7